Data supplied by UK-AIR on 14/6/2022
All Data GMT hour ending 
Status: R =Ratified P=Provisional,P*=As supplied
,,London Honor Oak Park,,,,,,,,,,,,,,,,,,,,,,,
Date,time,"PM<sub>10</sub> particulate matter (Hourly measured)",status,unit,"PM<sub>2.5</sub> particulate matter (Hourly measured)",status,unit
 
01-01-2019,01:00,,,,,,
01-01-2019,02:00,15.775,R,ugm-3 (FIDAS),11.179,R,ugm-3 (Ref.eq)
01-01-2019,03:00,10.900,R,ugm-3 (FIDAS),7.123,R,ugm-3 (Ref.eq)
01-01-2019,04:00,10.050,R,ugm-3 (FIDAS),5.542,R,ugm-3 (Ref.eq)
01-01-2019,05:00,10.950,R,ugm-3 (FIDAS),5.660,R,ugm-3 (Ref.eq)
01-01-2019,06:00,10.850,R,ugm-3 (FIDAS),5.991,R,ugm-3 (Ref.eq)
01-01-2019,07:00,10.575,R,ugm-3 (FIDAS),6.274,R,ugm-3 (Ref.eq)
01-01-2019,08:00,10.000,R,ugm-3 (FIDAS),6.203,R,ugm-3 (Ref.eq)
01-01-2019,09:00,10.725,R,ugm-3 (FIDAS),6.274,R,ugm-3 (Ref.eq)
01-01-2019,10:00,9.675,R,ugm-3 (FIDAS),6.038,R,ugm-3 (Ref.eq)
01-01-2019,11:00,10.475,R,ugm-3 (FIDAS),6.509,R,ugm-3 (Ref.eq)
01-01-2019,12:00,9.275,R,ugm-3 (FIDAS),5.991,R,ugm-3 (Ref.eq)
01-01-2019,13:00,6.600,R,ugm-3 (FIDAS),4.764,R,ugm-3 (Ref.eq)
01-01-2019,14:00,7.200,R,ugm-3 (FIDAS),4.788,R,ugm-3 (Ref.eq)
01-01-2019,15:00,7.050,R,ugm-3 (FIDAS),4.741,R,ugm-3 (Ref.eq)
01-01-2019,16:00,7.175,R,ugm-3 (FIDAS),4.929,R,ugm-3 (Ref.eq)
01-01-2019,17:00,8.325,R,ugm-3 (FIDAS),6.179,R,ugm-3 (Ref.eq)
01-01-2019,18:00,15.275,R,ugm-3 (FIDAS),9.104,R,ugm-3 (Ref.eq)
01-01-2019,19:00,15.900,R,ugm-3 (FIDAS),8.821,R,ugm-3 (Ref.eq)
01-01-2019,20:00,13.150,R,ugm-3 (FIDAS),7.736,R,ugm-3 (Ref.eq)
01-01-2019,21:00,10.200,R,ugm-3 (FIDAS),5.943,R,ugm-3 (Ref.eq)
01-01-2019,22:00,10.350,R,ugm-3 (FIDAS),5.755,R,ugm-3 (Ref.eq)
01-01-2019,23:00,12.425,R,ugm-3 (FIDAS),6.085,R,ugm-3 (Ref.eq)
01-01-2019,24:00,13.925,R,ugm-3 (FIDAS),6.887,R,ugm-3 (Ref.eq)
02-01-2019,01:00,13.475,R,ugm-3 (FIDAS),6.816,R,ugm-3 (Ref.eq)
02-01-2019,02:00,14.200,R,ugm-3 (FIDAS),6.769,R,ugm-3 (Ref.eq)
02-01-2019,03:00,14.450,R,ugm-3 (FIDAS),6.840,R,ugm-3 (Ref.eq)
02-01-2019,04:00,14.300,R,ugm-3 (FIDAS),6.745,R,ugm-3 (Ref.eq)
02-01-2019,05:00,15.050,R,ugm-3 (FIDAS),6.981,R,ugm-3 (Ref.eq)
02-01-2019,06:00,14.650,R,ugm-3 (FIDAS),6.958,R,ugm-3 (Ref.eq)
02-01-2019,07:00,14.850,R,ugm-3 (FIDAS),7.170,R,ugm-3 (Ref.eq)
02-01-2019,08:00,14.075,R,ugm-3 (FIDAS),6.863,R,ugm-3 (Ref.eq)
02-01-2019,09:00,16.475,R,ugm-3 (FIDAS),7.665,R,ugm-3 (Ref.eq)
02-01-2019,10:00,16.150,R,ugm-3 (FIDAS),7.476,R,ugm-3 (Ref.eq)
02-01-2019,11:00,17.025,R,ugm-3 (FIDAS),8.066,R,ugm-3 (Ref.eq)
02-01-2019,12:00,15.850,R,ugm-3 (FIDAS),8.066,R,ugm-3 (Ref.eq)
02-01-2019,13:00,16.125,R,ugm-3 (FIDAS),8.585,R,ugm-3 (Ref.eq)
02-01-2019,14:00,13.200,R,ugm-3 (FIDAS),6.745,R,ugm-3 (Ref.eq)
02-01-2019,15:00,12.325,R,ugm-3 (FIDAS),6.486,R,ugm-3 (Ref.eq)
02-01-2019,16:00,11.925,R,ugm-3 (FIDAS),6.981,R,ugm-3 (Ref.eq)
02-01-2019,17:00,13.425,R,ugm-3 (FIDAS),7.500,R,ugm-3 (Ref.eq)
02-01-2019,18:00,14.525,R,ugm-3 (FIDAS),8.467,R,ugm-3 (Ref.eq)
02-01-2019,19:00,16.900,R,ugm-3 (FIDAS),9.835,R,ugm-3 (Ref.eq)
02-01-2019,20:00,15.975,R,ugm-3 (FIDAS),9.670,R,ugm-3 (Ref.eq)
02-01-2019,21:00,16.150,R,ugm-3 (FIDAS),9.340,R,ugm-3 (Ref.eq)
02-01-2019,22:00,16.175,R,ugm-3 (FIDAS),10.000,R,ugm-3 (Ref.eq)
02-01-2019,23:00,15.750,R,ugm-3 (FIDAS),10.165,R,ugm-3 (Ref.eq)
02-01-2019,24:00,16.550,R,ugm-3 (FIDAS),10.778,R,ugm-3 (Ref.eq)
03-01-2019,01:00,16.400,R,ugm-3 (FIDAS),10.637,R,ugm-3 (Ref.eq)
03-01-2019,02:00,13.925,R,ugm-3 (FIDAS),9.127,R,ugm-3 (Ref.eq)
03-01-2019,03:00,13.125,R,ugm-3 (FIDAS),8.514,R,ugm-3 (Ref.eq)
03-01-2019,04:00,13.900,R,ugm-3 (FIDAS),8.868,R,ugm-3 (Ref.eq)
03-01-2019,05:00,11.350,R,ugm-3 (FIDAS),7.146,R,ugm-3 (Ref.eq)
03-01-2019,06:00,12.375,R,ugm-3 (FIDAS),8.585,R,ugm-3 (Ref.eq)
03-01-2019,07:00,11.925,R,ugm-3 (FIDAS),8.231,R,ugm-3 (Ref.eq)
03-01-2019,08:00,9.250,R,ugm-3 (FIDAS),6.085,R,ugm-3 (Ref.eq)
03-01-2019,09:00,6.400,R,ugm-3 (FIDAS),4.009,R,ugm-3 (Ref.eq)
03-01-2019,10:00,5.550,R,ugm-3 (FIDAS),3.443,R,ugm-3 (Ref.eq)
03-01-2019,11:00,5.450,R,ugm-3 (FIDAS),3.208,R,ugm-3 (Ref.eq)
03-01-2019,12:00,5.900,R,ugm-3 (FIDAS),3.467,R,ugm-3 (Ref.eq)
03-01-2019,13:00,9.425,R,ugm-3 (FIDAS),5.708,R,ugm-3 (Ref.eq)
03-01-2019,14:00,7.150,R,ugm-3 (FIDAS),4.363,R,ugm-3 (Ref.eq)
03-01-2019,15:00,8.800,R,ugm-3 (FIDAS),5.637,R,ugm-3 (Ref.eq)
03-01-2019,16:00,12.325,R,ugm-3 (FIDAS),8.184,R,ugm-3 (Ref.eq)
03-01-2019,17:00,14.600,R,ugm-3 (FIDAS),9.717,R,ugm-3 (Ref.eq)
03-01-2019,18:00,10.275,R,ugm-3 (FIDAS),6.863,R,ugm-3 (Ref.eq)
03-01-2019,19:00,14.750,R,ugm-3 (FIDAS),10.401,R,ugm-3 (Ref.eq)
03-01-2019,20:00,16.725,R,ugm-3 (FIDAS),12.382,R,ugm-3 (Ref.eq)
03-01-2019,21:00,19.275,R,ugm-3 (FIDAS),14.528,R,ugm-3 (Ref.eq)
03-01-2019,22:00,23.475,R,ugm-3 (FIDAS),18.609,R,ugm-3 (Ref.eq)
03-01-2019,23:00,25.175,R,ugm-3 (FIDAS),20.212,R,ugm-3 (Ref.eq)
03-01-2019,24:00,25.750,R,ugm-3 (FIDAS),21.179,R,ugm-3 (Ref.eq)
04-01-2019,01:00,25.450,R,ugm-3 (FIDAS),20.873,R,ugm-3 (Ref.eq)
04-01-2019,02:00,28.000,R,ugm-3 (FIDAS),23.066,R,ugm-3 (Ref.eq)
04-01-2019,03:00,27.025,R,ugm-3 (FIDAS),22.453,R,ugm-3 (Ref.eq)
04-01-2019,04:00,22.050,R,ugm-3 (FIDAS),18.491,R,ugm-3 (Ref.eq)
04-01-2019,05:00,21.550,R,ugm-3 (FIDAS),17.571,R,ugm-3 (Ref.eq)
04-01-2019,06:00,24.350,R,ugm-3 (FIDAS),20.236,R,ugm-3 (Ref.eq)
04-01-2019,07:00,29.550,R,ugm-3 (FIDAS),25.118,R,ugm-3 (Ref.eq)
04-01-2019,08:00,32.775,R,ugm-3 (FIDAS),27.783,R,ugm-3 (Ref.eq)
04-01-2019,09:00,34.625,R,ugm-3 (FIDAS),28.750,R,ugm-3 (Ref.eq)
04-01-2019,10:00,39.275,R,ugm-3 (FIDAS),31.887,R,ugm-3 (Ref.eq)
04-01-2019,11:00,34.600,R,ugm-3 (FIDAS),27.264,R,ugm-3 (Ref.eq)
04-01-2019,12:00,33.425,R,ugm-3 (FIDAS),25.330,R,ugm-3 (Ref.eq)
04-01-2019,13:00,20.775,R,ugm-3 (FIDAS),16.014,R,ugm-3 (Ref.eq)
04-01-2019,14:00,21.200,R,ugm-3 (FIDAS),15.755,R,ugm-3 (Ref.eq)
04-01-2019,15:00,23.225,R,ugm-3 (FIDAS),17.359,R,ugm-3 (Ref.eq)
04-01-2019,16:00,22.250,R,ugm-3 (FIDAS),17.123,R,ugm-3 (Ref.eq)
04-01-2019,17:00,17.250,R,ugm-3 (FIDAS),14.009,R,ugm-3 (Ref.eq)
04-01-2019,18:00,20.575,R,ugm-3 (FIDAS),16.085,R,ugm-3 (Ref.eq)
04-01-2019,19:00,23.450,R,ugm-3 (FIDAS),18.868,R,ugm-3 (Ref.eq)
04-01-2019,20:00,32.750,R,ugm-3 (FIDAS),26.981,R,ugm-3 (Ref.eq)
04-01-2019,21:00,39.325,R,ugm-3 (FIDAS),32.453,R,ugm-3 (Ref.eq)
04-01-2019,22:00,40.725,R,ugm-3 (FIDAS),33.962,R,ugm-3 (Ref.eq)
04-01-2019,23:00,43.750,R,ugm-3 (FIDAS),35.543,R,ugm-3 (Ref.eq)
04-01-2019,24:00,36.475,R,ugm-3 (FIDAS),30.165,R,ugm-3 (Ref.eq)
05-01-2019,01:00,26.550,R,ugm-3 (FIDAS),22.429,R,ugm-3 (Ref.eq)
05-01-2019,02:00,28.650,R,ugm-3 (FIDAS),24.764,R,ugm-3 (Ref.eq)
05-01-2019,03:00,31.150,R,ugm-3 (FIDAS),26.061,R,ugm-3 (Ref.eq)
05-01-2019,04:00,27.450,R,ugm-3 (FIDAS),23.821,R,ugm-3 (Ref.eq)
05-01-2019,05:00,24.075,R,ugm-3 (FIDAS),20.920,R,ugm-3 (Ref.eq)
05-01-2019,06:00,22.800,R,ugm-3 (FIDAS),19.741,R,ugm-3 (Ref.eq)
05-01-2019,07:00,24.400,R,ugm-3 (FIDAS),20.991,R,ugm-3 (Ref.eq)
05-01-2019,08:00,27.425,R,ugm-3 (FIDAS),23.797,R,ugm-3 (Ref.eq)
05-01-2019,09:00,28.200,R,ugm-3 (FIDAS),24.245,R,ugm-3 (Ref.eq)
05-01-2019,10:00,25.250,R,ugm-3 (FIDAS),21.274,R,ugm-3 (Ref.eq)
05-01-2019,11:00,25.950,R,ugm-3 (FIDAS),21.793,R,ugm-3 (Ref.eq)
05-01-2019,12:00,25.425,R,ugm-3 (FIDAS),21.415,R,ugm-3 (Ref.eq)
05-01-2019,13:00,19.625,R,ugm-3 (FIDAS),15.778,R,ugm-3 (Ref.eq)
05-01-2019,14:00,18.275,R,ugm-3 (FIDAS),14.646,R,ugm-3 (Ref.eq)
05-01-2019,15:00,17.425,R,ugm-3 (FIDAS),14.458,R,ugm-3 (Ref.eq)
05-01-2019,16:00,18.625,R,ugm-3 (FIDAS),15.142,R,ugm-3 (Ref.eq)
05-01-2019,17:00,19.225,R,ugm-3 (FIDAS),15.849,R,ugm-3 (Ref.eq)
05-01-2019,18:00,18.225,R,ugm-3 (FIDAS),14.906,R,ugm-3 (Ref.eq)
05-01-2019,19:00,23.400,R,ugm-3 (FIDAS),19.293,R,ugm-3 (Ref.eq)
05-01-2019,20:00,29.025,R,ugm-3 (FIDAS),24.929,R,ugm-3 (Ref.eq)
05-01-2019,21:00,27.525,R,ugm-3 (FIDAS),23.444,R,ugm-3 (Ref.eq)
05-01-2019,22:00,26.325,R,ugm-3 (FIDAS),21.981,R,ugm-3 (Ref.eq)
05-01-2019,23:00,22.725,R,ugm-3 (FIDAS),18.892,R,ugm-3 (Ref.eq)
05-01-2019,24:00,24.425,R,ugm-3 (FIDAS),20.377,R,ugm-3 (Ref.eq)
06-01-2019,01:00,28.900,R,ugm-3 (FIDAS),24.741,R,ugm-3 (Ref.eq)
06-01-2019,02:00,27.650,R,ugm-3 (FIDAS),24.033,R,ugm-3 (Ref.eq)
06-01-2019,03:00,25.250,R,ugm-3 (FIDAS),21.675,R,ugm-3 (Ref.eq)
06-01-2019,04:00,22.650,R,ugm-3 (FIDAS),19.363,R,ugm-3 (Ref.eq)
06-01-2019,05:00,21.075,R,ugm-3 (FIDAS),17.642,R,ugm-3 (Ref.eq)
06-01-2019,06:00,20.625,R,ugm-3 (FIDAS),17.146,R,ugm-3 (Ref.eq)
06-01-2019,07:00,20.825,R,ugm-3 (FIDAS),17.406,R,ugm-3 (Ref.eq)
06-01-2019,08:00,21.625,R,ugm-3 (FIDAS),17.948,R,ugm-3 (Ref.eq)
06-01-2019,09:00,21.725,R,ugm-3 (FIDAS),17.995,R,ugm-3 (Ref.eq)
06-01-2019,10:00,22.000,R,ugm-3 (FIDAS),17.571,R,ugm-3 (Ref.eq)
06-01-2019,11:00,21.800,R,ugm-3 (FIDAS),17.076,R,ugm-3 (Ref.eq)
06-01-2019,12:00,20.800,R,ugm-3 (FIDAS),15.307,R,ugm-3 (Ref.eq)
06-01-2019,13:00,19.175,R,ugm-3 (FIDAS),13.538,R,ugm-3 (Ref.eq)
06-01-2019,14:00,18.625,R,ugm-3 (FIDAS),12.311,R,ugm-3 (Ref.eq)
06-01-2019,15:00,19.375,R,ugm-3 (FIDAS),11.698,R,ugm-3 (Ref.eq)
06-01-2019,16:00,18.200,R,ugm-3 (FIDAS),11.486,R,ugm-3 (Ref.eq)
06-01-2019,17:00,20.875,R,ugm-3 (FIDAS),12.948,R,ugm-3 (Ref.eq)
06-01-2019,18:00,22.650,R,ugm-3 (FIDAS),14.811,R,ugm-3 (Ref.eq)
06-01-2019,19:00,23.700,R,ugm-3 (FIDAS),16.156,R,ugm-3 (Ref.eq)
06-01-2019,20:00,26.500,R,ugm-3 (FIDAS),18.066,R,ugm-3 (Ref.eq)
06-01-2019,21:00,30.075,R,ugm-3 (FIDAS),20.425,R,ugm-3 (Ref.eq)
06-01-2019,22:00,31.400,R,ugm-3 (FIDAS),20.991,R,ugm-3 (Ref.eq)
06-01-2019,23:00,30.175,R,ugm-3 (FIDAS),19.269,R,ugm-3 (Ref.eq)
06-01-2019,24:00,28.225,R,ugm-3 (FIDAS),17.123,R,ugm-3 (Ref.eq)
07-01-2019,01:00,28.275,R,ugm-3 (FIDAS),17.406,R,ugm-3 (Ref.eq)
07-01-2019,02:00,25.400,R,ugm-3 (FIDAS),16.014,R,ugm-3 (Ref.eq)
07-01-2019,03:00,21.450,R,ugm-3 (FIDAS),14.127,R,ugm-3 (Ref.eq)
07-01-2019,04:00,20.050,R,ugm-3 (FIDAS),12.736,R,ugm-3 (Ref.eq)
07-01-2019,05:00,21.025,R,ugm-3 (FIDAS),13.892,R,ugm-3 (Ref.eq)
07-01-2019,06:00,20.475,R,ugm-3 (FIDAS),12.830,R,ugm-3 (Ref.eq)
07-01-2019,07:00,21.075,R,ugm-3 (FIDAS),11.887,R,ugm-3 (Ref.eq)
07-01-2019,08:00,20.100,R,ugm-3 (FIDAS),10.024,R,ugm-3 (Ref.eq)
07-01-2019,09:00,17.675,R,ugm-3 (FIDAS),9.340,R,ugm-3 (Ref.eq)
07-01-2019,10:00,17.550,R,ugm-3 (FIDAS),9.198,R,ugm-3 (Ref.eq)
07-01-2019,11:00,19.025,R,ugm-3 (FIDAS),9.646,R,ugm-3 (Ref.eq)
07-01-2019,12:00,18.675,R,ugm-3 (FIDAS),10.259,R,ugm-3 (Ref.eq)
07-01-2019,13:00,18.450,R,ugm-3 (FIDAS),11.840,R,ugm-3 (Ref.eq)
07-01-2019,14:00,15.700,R,ugm-3 (FIDAS),9.646,R,ugm-3 (Ref.eq)
07-01-2019,15:00,12.375,R,ugm-3 (FIDAS),7.453,R,ugm-3 (Ref.eq)
07-01-2019,16:00,10.650,R,ugm-3 (FIDAS),6.439,R,ugm-3 (Ref.eq)
07-01-2019,17:00,8.250,R,ugm-3 (FIDAS),5.802,R,ugm-3 (Ref.eq)
07-01-2019,18:00,11.875,R,ugm-3 (FIDAS),7.689,R,ugm-3 (Ref.eq)
07-01-2019,19:00,12.950,R,ugm-3 (FIDAS),8.090,R,ugm-3 (Ref.eq)
07-01-2019,20:00,12.500,R,ugm-3 (FIDAS),7.712,R,ugm-3 (Ref.eq)
07-01-2019,21:00,12.750,R,ugm-3 (FIDAS),7.524,R,ugm-3 (Ref.eq)
07-01-2019,22:00,10.750,R,ugm-3 (FIDAS),6.934,R,ugm-3 (Ref.eq)
07-01-2019,23:00,7.850,R,ugm-3 (FIDAS),5.401,R,ugm-3 (Ref.eq)
07-01-2019,24:00,7.925,R,ugm-3 (FIDAS),4.741,R,ugm-3 (Ref.eq)
08-01-2019,01:00,11.300,R,ugm-3 (FIDAS),5.354,R,ugm-3 (Ref.eq)
08-01-2019,02:00,10.025,R,ugm-3 (FIDAS),5.212,R,ugm-3 (Ref.eq)
08-01-2019,03:00,9.950,R,ugm-3 (FIDAS),5.071,R,ugm-3 (Ref.eq)
08-01-2019,04:00,9.575,R,ugm-3 (FIDAS),5.000,R,ugm-3 (Ref.eq)
08-01-2019,05:00,10.525,R,ugm-3 (FIDAS),5.189,R,ugm-3 (Ref.eq)
08-01-2019,06:00,9.200,R,ugm-3 (FIDAS),4.953,R,ugm-3 (Ref.eq)
08-01-2019,07:00,10.050,R,ugm-3 (FIDAS),5.000,R,ugm-3 (Ref.eq)
08-01-2019,08:00,11.000,R,ugm-3 (FIDAS),5.590,R,ugm-3 (Ref.eq)
08-01-2019,09:00,12.625,R,ugm-3 (FIDAS),6.156,R,ugm-3 (Ref.eq)
08-01-2019,10:00,17.475,R,ugm-3 (FIDAS),8.113,R,ugm-3 (Ref.eq)
08-01-2019,11:00,24.175,R,ugm-3 (FIDAS),10.896,R,ugm-3 (Ref.eq)
08-01-2019,12:00,20.675,R,ugm-3 (FIDAS),10.472,R,ugm-3 (Ref.eq)
08-01-2019,13:00,17.350,R,ugm-3 (FIDAS),8.703,R,ugm-3 (Ref.eq)
08-01-2019,14:00,17.250,R,ugm-3 (FIDAS),8.986,R,ugm-3 (Ref.eq)
08-01-2019,15:00,16.350,R,ugm-3 (FIDAS),8.042,R,ugm-3 (Ref.eq)
08-01-2019,16:00,14.450,R,ugm-3 (FIDAS),7.406,R,ugm-3 (Ref.eq)
08-01-2019,17:00,17.725,R,ugm-3 (FIDAS),8.797,R,ugm-3 (Ref.eq)
08-01-2019,18:00,21.000,R,ugm-3 (FIDAS),10.896,R,ugm-3 (Ref.eq)
08-01-2019,19:00,21.600,R,ugm-3 (FIDAS),12.146,R,ugm-3 (Ref.eq)
08-01-2019,20:00,22.250,R,ugm-3 (FIDAS),12.948,R,ugm-3 (Ref.eq)
08-01-2019,21:00,19.550,R,ugm-3 (FIDAS),11.981,R,ugm-3 (Ref.eq)
08-01-2019,22:00,16.800,R,ugm-3 (FIDAS),10.165,R,ugm-3 (Ref.eq)
08-01-2019,23:00,14.050,R,ugm-3 (FIDAS),8.750,R,ugm-3 (Ref.eq)
08-01-2019,24:00,14.975,R,ugm-3 (FIDAS),9.764,R,ugm-3 (Ref.eq)
09-01-2019,01:00,14.475,R,ugm-3 (FIDAS),9.576,R,ugm-3 (Ref.eq)
09-01-2019,02:00,11.750,R,ugm-3 (FIDAS),7.547,R,ugm-3 (Ref.eq)
09-01-2019,03:00,8.850,R,ugm-3 (FIDAS),5.519,R,ugm-3 (Ref.eq)
09-01-2019,04:00,8.375,R,ugm-3 (FIDAS),5.401,R,ugm-3 (Ref.eq)
09-01-2019,05:00,8.225,R,ugm-3 (FIDAS),5.024,R,ugm-3 (Ref.eq)
09-01-2019,06:00,9.075,R,ugm-3 (FIDAS),5.401,R,ugm-3 (Ref.eq)
09-01-2019,07:00,9.325,R,ugm-3 (FIDAS),5.425,R,ugm-3 (Ref.eq)
09-01-2019,08:00,10.000,R,ugm-3 (FIDAS),5.071,R,ugm-3 (Ref.eq)
09-01-2019,09:00,10.125,R,ugm-3 (FIDAS),5.094,R,ugm-3 (Ref.eq)
09-01-2019,10:00,13.750,R,ugm-3 (FIDAS),5.708,R,ugm-3 (Ref.eq)
09-01-2019,11:00,21.475,R,ugm-3 (FIDAS),6.769,R,ugm-3 (Ref.eq)
09-01-2019,12:00,12.275,R,ugm-3 (FIDAS),6.203,R,ugm-3 (Ref.eq)
09-01-2019,13:00,12.775,R,ugm-3 (FIDAS),6.014,R,ugm-3 (Ref.eq)
09-01-2019,14:00,13.475,R,ugm-3 (FIDAS),6.840,R,ugm-3 (Ref.eq)
09-01-2019,15:00,15.725,R,ugm-3 (FIDAS),7.406,R,ugm-3 (Ref.eq)
09-01-2019,16:00,15.475,R,ugm-3 (FIDAS),7.382,R,ugm-3 (Ref.eq)
09-01-2019,17:00,14.500,R,ugm-3 (FIDAS),7.241,R,ugm-3 (Ref.eq)
09-01-2019,18:00,14.550,R,ugm-3 (FIDAS),8.208,R,ugm-3 (Ref.eq)
09-01-2019,19:00,15.450,R,ugm-3 (FIDAS),8.939,R,ugm-3 (Ref.eq)
09-01-2019,20:00,18.300,R,ugm-3 (FIDAS),11.722,R,ugm-3 (Ref.eq)
09-01-2019,21:00,19.350,R,ugm-3 (FIDAS),12.076,R,ugm-3 (Ref.eq)
09-01-2019,22:00,17.125,R,ugm-3 (FIDAS),11.887,R,ugm-3 (Ref.eq)
09-01-2019,23:00,17.225,R,ugm-3 (FIDAS),12.877,R,ugm-3 (Ref.eq)
09-01-2019,24:00,18.125,R,ugm-3 (FIDAS),13.538,R,ugm-3 (Ref.eq)
10-01-2019,01:00,17.775,R,ugm-3 (FIDAS),13.703,R,ugm-3 (Ref.eq)
10-01-2019,02:00,18.825,R,ugm-3 (FIDAS),13.679,R,ugm-3 (Ref.eq)
10-01-2019,03:00,19.900,R,ugm-3 (FIDAS),15.566,R,ugm-3 (Ref.eq)
10-01-2019,04:00,22.125,R,ugm-3 (FIDAS),16.910,R,ugm-3 (Ref.eq)
10-01-2019,05:00,20.275,R,ugm-3 (FIDAS),15.991,R,ugm-3 (Ref.eq)
10-01-2019,06:00,20.150,R,ugm-3 (FIDAS),16.392,R,ugm-3 (Ref.eq)
10-01-2019,07:00,20.150,R,ugm-3 (FIDAS),17.241,R,ugm-3 (Ref.eq)
10-01-2019,08:00,24.075,R,ugm-3 (FIDAS),20.000,R,ugm-3 (Ref.eq)
10-01-2019,09:00,28.600,R,ugm-3 (FIDAS),22.925,R,ugm-3 (Ref.eq)
10-01-2019,10:00,66.150,R,ugm-3 (FIDAS),31.368,R,ugm-3 (Ref.eq)
10-01-2019,11:00,48.500,R,ugm-3 (FIDAS),33.491,R,ugm-3 (Ref.eq)
10-01-2019,12:00,48.925,R,ugm-3 (FIDAS),33.868,R,ugm-3 (Ref.eq)
10-01-2019,13:00,43.500,R,ugm-3 (FIDAS),32.123,R,ugm-3 (Ref.eq)
10-01-2019,14:00,42.550,R,ugm-3 (FIDAS),30.944,R,ugm-3 (Ref.eq)
10-01-2019,15:00,40.800,R,ugm-3 (FIDAS),28.821,R,ugm-3 (Ref.eq)
10-01-2019,16:00,29.150,R,ugm-3 (FIDAS),20.236,R,ugm-3 (Ref.eq)
10-01-2019,17:00,33.850,R,ugm-3 (FIDAS),20.896,R,ugm-3 (Ref.eq)
10-01-2019,18:00,30.475,R,ugm-3 (FIDAS),22.618,R,ugm-3 (Ref.eq)
10-01-2019,19:00,32.475,R,ugm-3 (FIDAS),25.543,R,ugm-3 (Ref.eq)
10-01-2019,20:00,34.850,R,ugm-3 (FIDAS),28.514,R,ugm-3 (Ref.eq)
10-01-2019,21:00,36.500,R,ugm-3 (FIDAS),29.717,R,ugm-3 (Ref.eq)
10-01-2019,22:00,34.900,R,ugm-3 (FIDAS),29.387,R,ugm-3 (Ref.eq)
10-01-2019,23:00,31.900,R,ugm-3 (FIDAS),27.170,R,ugm-3 (Ref.eq)
10-01-2019,24:00,29.275,R,ugm-3 (FIDAS),25.637,R,ugm-3 (Ref.eq)
11-01-2019,01:00,23.750,R,ugm-3 (FIDAS),20.896,R,ugm-3 (Ref.eq)
11-01-2019,02:00,18.325,R,ugm-3 (FIDAS),15.472,R,ugm-3 (Ref.eq)
11-01-2019,03:00,19.125,R,ugm-3 (FIDAS),16.344,R,ugm-3 (Ref.eq)
11-01-2019,04:00,18.400,R,ugm-3 (FIDAS),16.297,R,ugm-3 (Ref.eq)
11-01-2019,05:00,19.225,R,ugm-3 (FIDAS),17.099,R,ugm-3 (Ref.eq)
11-01-2019,06:00,21.950,R,ugm-3 (FIDAS),19.080,R,ugm-3 (Ref.eq)
11-01-2019,07:00,21.800,R,ugm-3 (FIDAS),18.632,R,ugm-3 (Ref.eq)
11-01-2019,08:00,20.250,R,ugm-3 (FIDAS),17.264,R,ugm-3 (Ref.eq)
11-01-2019,09:00,18.375,R,ugm-3 (FIDAS),14.764,R,ugm-3 (Ref.eq)
11-01-2019,10:00,20.475,R,ugm-3 (FIDAS),15.071,R,ugm-3 (Ref.eq)
11-01-2019,11:00,18.550,R,ugm-3 (FIDAS),13.137,R,ugm-3 (Ref.eq)
11-01-2019,12:00,17.650,R,ugm-3 (FIDAS),12.948,R,ugm-3 (Ref.eq)
11-01-2019,13:00,18.225,R,ugm-3 (FIDAS),12.948,R,ugm-3 (Ref.eq)
11-01-2019,14:00,23.200,R,ugm-3 (FIDAS),14.481,R,ugm-3 (Ref.eq)
11-01-2019,15:00,24.225,R,ugm-3 (FIDAS),15.189,R,ugm-3 (Ref.eq)
11-01-2019,16:00,22.725,R,ugm-3 (FIDAS),14.717,R,ugm-3 (Ref.eq)
11-01-2019,17:00,24.750,R,ugm-3 (FIDAS),16.981,R,ugm-3 (Ref.eq)
11-01-2019,18:00,17.600,R,ugm-3 (FIDAS),12.406,R,ugm-3 (Ref.eq)
11-01-2019,19:00,15.725,R,ugm-3 (FIDAS),11.533,R,ugm-3 (Ref.eq)
11-01-2019,20:00,10.675,R,ugm-3 (FIDAS),7.925,R,ugm-3 (Ref.eq)
11-01-2019,21:00,13.700,R,ugm-3 (FIDAS),10.873,R,ugm-3 (Ref.eq)
11-01-2019,22:00,13.750,R,ugm-3 (FIDAS),10.920,R,ugm-3 (Ref.eq)
11-01-2019,23:00,16.825,R,ugm-3 (FIDAS),12.972,R,ugm-3 (Ref.eq)
11-01-2019,24:00,15.000,R,ugm-3 (FIDAS),11.392,R,ugm-3 (Ref.eq)
12-01-2019,01:00,12.325,R,ugm-3 (FIDAS),9.363,R,ugm-3 (Ref.eq)
12-01-2019,02:00,11.350,R,ugm-3 (FIDAS),8.797,R,ugm-3 (Ref.eq)
12-01-2019,03:00,7.500,R,ugm-3 (FIDAS),5.896,R,ugm-3 (Ref.eq)
12-01-2019,04:00,6.450,R,ugm-3 (FIDAS),4.906,R,ugm-3 (Ref.eq)
12-01-2019,05:00,6.125,R,ugm-3 (FIDAS),4.788,R,ugm-3 (Ref.eq)
12-01-2019,06:00,6.500,R,ugm-3 (FIDAS),5.071,R,ugm-3 (Ref.eq)
12-01-2019,07:00,6.225,R,ugm-3 (FIDAS),5.094,R,ugm-3 (Ref.eq)
12-01-2019,08:00,6.325,R,ugm-3 (FIDAS),5.236,R,ugm-3 (Ref.eq)
12-01-2019,09:00,6.475,R,ugm-3 (FIDAS),4.953,R,ugm-3 (Ref.eq)
12-01-2019,10:00,6.950,R,ugm-3 (FIDAS),5.000,R,ugm-3 (Ref.eq)
12-01-2019,11:00,8.075,R,ugm-3 (FIDAS),5.684,R,ugm-3 (Ref.eq)
12-01-2019,12:00,7.125,R,ugm-3 (FIDAS),5.047,R,ugm-3 (Ref.eq)
12-01-2019,13:00,6.600,R,ugm-3 (FIDAS),4.458,R,ugm-3 (Ref.eq)
12-01-2019,14:00,6.825,R,ugm-3 (FIDAS),4.434,R,ugm-3 (Ref.eq)
12-01-2019,15:00,5.425,R,ugm-3 (FIDAS),3.302,R,ugm-3 (Ref.eq)
12-01-2019,16:00,6.550,R,ugm-3 (FIDAS),3.231,R,ugm-3 (Ref.eq)
12-01-2019,17:00,5.450,R,ugm-3 (FIDAS),3.160,R,ugm-3 (Ref.eq)
12-01-2019,18:00,5.250,R,ugm-3 (FIDAS),3.514,R,ugm-3 (Ref.eq)
12-01-2019,19:00,5.550,R,ugm-3 (FIDAS),3.939,R,ugm-3 (Ref.eq)
12-01-2019,20:00,5.750,R,ugm-3 (FIDAS),4.269,R,ugm-3 (Ref.eq)
12-01-2019,21:00,6.200,R,ugm-3 (FIDAS),4.693,R,ugm-3 (Ref.eq)
12-01-2019,22:00,5.850,R,ugm-3 (FIDAS),4.481,R,ugm-3 (Ref.eq)
12-01-2019,23:00,6.000,R,ugm-3 (FIDAS),4.363,R,ugm-3 (Ref.eq)
12-01-2019,24:00,6.200,R,ugm-3 (FIDAS),4.340,R,ugm-3 (Ref.eq)
13-01-2019,01:00,5.750,R,ugm-3 (FIDAS),3.962,R,ugm-3 (Ref.eq)
13-01-2019,02:00,5.375,R,ugm-3 (FIDAS),3.538,R,ugm-3 (Ref.eq)
13-01-2019,03:00,4.450,R,ugm-3 (FIDAS),3.090,R,ugm-3 (Ref.eq)
13-01-2019,04:00,4.025,R,ugm-3 (FIDAS),2.736,R,ugm-3 (Ref.eq)
13-01-2019,05:00,3.350,R,ugm-3 (FIDAS),2.382,R,ugm-3 (Ref.eq)
13-01-2019,06:00,4.550,R,ugm-3 (FIDAS),3.255,R,ugm-3 (Ref.eq)
13-01-2019,07:00,7.225,R,ugm-3 (FIDAS),5.849,R,ugm-3 (Ref.eq)
13-01-2019,08:00,6.925,R,ugm-3 (FIDAS),5.542,R,ugm-3 (Ref.eq)
13-01-2019,09:00,6.700,R,ugm-3 (FIDAS),5.071,R,ugm-3 (Ref.eq)
13-01-2019,10:00,8.250,R,ugm-3 (FIDAS),6.344,R,ugm-3 (Ref.eq)
13-01-2019,11:00,8.875,R,ugm-3 (FIDAS),6.274,R,ugm-3 (Ref.eq)
13-01-2019,12:00,6.725,R,ugm-3 (FIDAS),4.528,R,ugm-3 (Ref.eq)
13-01-2019,13:00,7.200,R,ugm-3 (FIDAS),3.774,R,ugm-3 (Ref.eq)
13-01-2019,14:00,7.000,R,ugm-3 (FIDAS),3.656,R,ugm-3 (Ref.eq)
13-01-2019,15:00,7.600,R,ugm-3 (FIDAS),4.458,R,ugm-3 (Ref.eq)
13-01-2019,16:00,7.875,R,ugm-3 (FIDAS),5.236,R,ugm-3 (Ref.eq)
13-01-2019,17:00,6.500,R,ugm-3 (FIDAS),4.528,R,ugm-3 (Ref.eq)
13-01-2019,18:00,5.225,R,ugm-3 (FIDAS),3.915,R,ugm-3 (Ref.eq)
13-01-2019,19:00,5.175,R,ugm-3 (FIDAS),3.774,R,ugm-3 (Ref.eq)
13-01-2019,20:00,5.475,R,ugm-3 (FIDAS),3.373,R,ugm-3 (Ref.eq)
13-01-2019,21:00,9.475,R,ugm-3 (FIDAS),4.198,R,ugm-3 (Ref.eq)
13-01-2019,22:00,9.825,R,ugm-3 (FIDAS),5.189,R,ugm-3 (Ref.eq)
13-01-2019,23:00,10.350,R,ugm-3 (FIDAS),5.377,R,ugm-3 (Ref.eq)
13-01-2019,24:00,8.525,R,ugm-3 (FIDAS),5.000,R,ugm-3 (Ref.eq)
14-01-2019,01:00,9.350,R,ugm-3 (FIDAS),5.377,R,ugm-3 (Ref.eq)
14-01-2019,02:00,10.675,R,ugm-3 (FIDAS),5.708,R,ugm-3 (Ref.eq)
14-01-2019,03:00,9.600,R,ugm-3 (FIDAS),5.613,R,ugm-3 (Ref.eq)
14-01-2019,04:00,10.675,R,ugm-3 (FIDAS),5.991,R,ugm-3 (Ref.eq)
14-01-2019,05:00,10.950,R,ugm-3 (FIDAS),5.896,R,ugm-3 (Ref.eq)
14-01-2019,06:00,10.000,R,ugm-3 (FIDAS),5.849,R,ugm-3 (Ref.eq)
14-01-2019,07:00,10.950,R,ugm-3 (FIDAS),5.967,R,ugm-3 (Ref.eq)
14-01-2019,08:00,11.250,R,ugm-3 (FIDAS),5.849,R,ugm-3 (Ref.eq)
14-01-2019,09:00,11.575,R,ugm-3 (FIDAS),5.873,R,ugm-3 (Ref.eq)
14-01-2019,10:00,13.850,R,ugm-3 (FIDAS),6.368,R,ugm-3 (Ref.eq)
14-01-2019,11:00,14.475,R,ugm-3 (FIDAS),6.486,R,ugm-3 (Ref.eq)
14-01-2019,12:00,14.750,R,ugm-3 (FIDAS),7.146,R,ugm-3 (Ref.eq)
14-01-2019,13:00,14.925,R,ugm-3 (FIDAS),7.783,R,ugm-3 (Ref.eq)
14-01-2019,14:00,13.950,R,ugm-3 (FIDAS),6.722,R,ugm-3 (Ref.eq)
14-01-2019,15:00,13.125,R,ugm-3 (FIDAS),6.156,R,ugm-3 (Ref.eq)
14-01-2019,16:00,13.925,R,ugm-3 (FIDAS),6.533,R,ugm-3 (Ref.eq)
14-01-2019,17:00,17.250,R,ugm-3 (FIDAS),9.434,R,ugm-3 (Ref.eq)
14-01-2019,18:00,17.425,R,ugm-3 (FIDAS),9.717,R,ugm-3 (Ref.eq)
14-01-2019,19:00,14.725,R,ugm-3 (FIDAS),8.184,R,ugm-3 (Ref.eq)
14-01-2019,20:00,16.275,R,ugm-3 (FIDAS),9.505,R,ugm-3 (Ref.eq)
14-01-2019,21:00,17.475,R,ugm-3 (FIDAS),10.425,R,ugm-3 (Ref.eq)
14-01-2019,22:00,14.675,R,ugm-3 (FIDAS),9.670,R,ugm-3 (Ref.eq)
14-01-2019,23:00,14.975,R,ugm-3 (FIDAS),9.410,R,ugm-3 (Ref.eq)
14-01-2019,24:00,16.000,R,ugm-3 (FIDAS),10.377,R,ugm-3 (Ref.eq)
15-01-2019,01:00,13.975,R,ugm-3 (FIDAS),9.528,R,ugm-3 (Ref.eq)
15-01-2019,02:00,12.200,R,ugm-3 (FIDAS),8.349,R,ugm-3 (Ref.eq)
15-01-2019,03:00,12.675,R,ugm-3 (FIDAS),8.326,R,ugm-3 (Ref.eq)
15-01-2019,04:00,10.575,R,ugm-3 (FIDAS),7.005,R,ugm-3 (Ref.eq)
15-01-2019,05:00,9.425,R,ugm-3 (FIDAS),6.226,R,ugm-3 (Ref.eq)
15-01-2019,06:00,10.250,R,ugm-3 (FIDAS),6.250,R,ugm-3 (Ref.eq)
15-01-2019,07:00,9.625,R,ugm-3 (FIDAS),6.156,R,ugm-3 (Ref.eq)
15-01-2019,08:00,9.425,R,ugm-3 (FIDAS),5.991,R,ugm-3 (Ref.eq)
15-01-2019,09:00,9.100,R,ugm-3 (FIDAS),5.212,R,ugm-3 (Ref.eq)
15-01-2019,10:00,10.025,R,ugm-3 (FIDAS),4.693,R,ugm-3 (Ref.eq)
15-01-2019,11:00,8.825,R,ugm-3 (FIDAS),4.198,R,ugm-3 (Ref.eq)
15-01-2019,12:00,6.600,R,ugm-3 (FIDAS),3.561,R,ugm-3 (Ref.eq)
15-01-2019,13:00,6.250,R,ugm-3 (FIDAS),3.302,R,ugm-3 (Ref.eq)
15-01-2019,14:00,5.950,R,ugm-3 (FIDAS),2.901,R,ugm-3 (Ref.eq)
15-01-2019,15:00,6.075,R,ugm-3 (FIDAS),3.066,R,ugm-3 (Ref.eq)
15-01-2019,16:00,6.950,R,ugm-3 (FIDAS),3.373,R,ugm-3 (Ref.eq)
15-01-2019,17:00,6.400,R,ugm-3 (FIDAS),3.396,R,ugm-3 (Ref.eq)
15-01-2019,18:00,6.300,R,ugm-3 (FIDAS),3.868,R,ugm-3 (Ref.eq)
15-01-2019,19:00,5.875,R,ugm-3 (FIDAS),4.080,R,ugm-3 (Ref.eq)
15-01-2019,20:00,5.250,R,ugm-3 (FIDAS),3.443,R,ugm-3 (Ref.eq)
15-01-2019,21:00,4.875,R,ugm-3 (FIDAS),3.396,R,ugm-3 (Ref.eq)
15-01-2019,22:00,4.675,R,ugm-3 (FIDAS),3.278,R,ugm-3 (Ref.eq)
15-01-2019,23:00,4.300,R,ugm-3 (FIDAS),3.113,R,ugm-3 (Ref.eq)
15-01-2019,24:00,4.775,R,ugm-3 (FIDAS),3.420,R,ugm-3 (Ref.eq)
16-01-2019,01:00,4.025,R,ugm-3 (FIDAS),2.642,R,ugm-3 (Ref.eq)
16-01-2019,02:00,3.825,R,ugm-3 (FIDAS),2.665,R,ugm-3 (Ref.eq)
16-01-2019,03:00,3.650,R,ugm-3 (FIDAS),2.642,R,ugm-3 (Ref.eq)
16-01-2019,04:00,4.100,R,ugm-3 (FIDAS),3.137,R,ugm-3 (Ref.eq)
16-01-2019,05:00,3.950,R,ugm-3 (FIDAS),2.830,R,ugm-3 (Ref.eq)
16-01-2019,06:00,2.600,R,ugm-3 (FIDAS),1.887,R,ugm-3 (Ref.eq)
16-01-2019,07:00,4.925,R,ugm-3 (FIDAS),3.420,R,ugm-3 (Ref.eq)
16-01-2019,08:00,4.100,R,ugm-3 (FIDAS),2.925,R,ugm-3 (Ref.eq)
16-01-2019,09:00,4.025,R,ugm-3 (FIDAS),3.042,R,ugm-3 (Ref.eq)
16-01-2019,10:00,8.425,R,ugm-3 (FIDAS),5.401,R,ugm-3 (Ref.eq)
16-01-2019,11:00,7.075,R,ugm-3 (FIDAS),4.788,R,ugm-3 (Ref.eq)
16-01-2019,12:00,11.625,R,ugm-3 (FIDAS),6.981,R,ugm-3 (Ref.eq)
16-01-2019,13:00,11.000,R,ugm-3 (FIDAS),6.840,R,ugm-3 (Ref.eq)
16-01-2019,14:00,7.000,R,ugm-3 (FIDAS),4.859,R,ugm-3 (Ref.eq)
16-01-2019,15:00,5.425,R,ugm-3 (FIDAS),3.868,R,ugm-3 (Ref.eq)